User: anonymous   Login
Location: Walnut Point State Park
(39.6958°N, 88.0345°W)
Time: 19:10:03
(UTC-06:00)
Language:

Iridium 75 - Orbit

View from above orbital plane
View from above orbital plane
View from above satellite
View from above satellite

Ground track
Ground track

The orbit data is extracted from the following two-line orbital elements,

1 25346U 98032E   17321.55209635 -.00000030  00000-0 -17827-4 0  9995
2 25346  86.3966 160.0617 0001869  84.2650 275.8759 14.34221158 21658
Epoch (UTC): 17 November 2017 13:15:01
Eccentricity: 0.0001869
inclination: 86.3966°
perigee height: 776 km
apogee height: 779 km
right ascension of ascending node: 160.0617°
argument of perigee: 84.2650°
revolutions per day: 14.34221158
mean anomaly at epoch: 275.8759°
orbit number at epoch: 2165

The dashed part of the orbit path shows where the satellite is in the earth's shadow,  

DLR